[[{"header":{"parameterUnit":"m.s-1","parameterCategory":1,"la1":30.2991,"la2":30.254,"lo1":-89.0895,"lo2":-89.0444,"dy":0.0017,"dx":0.0017,"nx":28,"ny":28,"refTime":"2024-11-26T09:00:00:Z","depth":0,"parameterNumber":2,"parameterNumberName":"U-component_of_WINDS"},"data":[0,0,0,0,0,0,0,0,0,0,0,0,0,0,0,0,0,0,0,0,0,0,0,0,0,0,0,0,0,0,0,0,0,0,0,0,0,0,0,0,0,0,0,0,0,0,0,0,0,0,0,0,0,0,0,0,0,0,0.5883,0.5883,0,0.5865,0.5865,0.5865,0.5843,0.5843,0.5843,0.5842,0.5824,0.5824,0.5824,0,0,0,0,0,0,0,0,0,0,0,0,0,0.5899,0.5899,0.5883,0.5883,0.5883,0.5865,0.5865,0.5865,0.5843,0.5843,0.5842,0.5842,0.5824,0.5824,0.5824,0,0,0,0,0,0,0,0,0,0,0,0,0,0.5888,0.5899,0.5883,0.587,0.5869,0.5865,0.5865,0.5865,0.5843,0.5843,0.5842,0.5842,0.5825,0.5824,0.5824,0.5833,0,0,0.5823,0.5823,0,0,0,0,0,0,0,0,0.5888,0.5887,0.5872,0.5871,0.5869,0.5856,0.5864,0.5854,0.5844,0.5853,0.5842,0.5842,0.5835,0.5834,0.5832,0.5832,0.5831,0.5823,0.5823,0.5823,0.5823,0,0,0,0,0,0,0,0.5889,0.5888,0.5876,0.5872,0.587,0.5865,0.5863,0.5862,0.5847,0.5852,0.585,0.5849,0.5835,0.5832,0.5831,0.5831,0.5823,0.5823,0.5823,0.5823,0.5836,0.5837,0,0,0,0,0,0,0.5892,0.5889,0.5877,0.5876,0.5878,0.5865,0.5863,0.5861,0.5847,0.5845,0.5849,0.5848,0.5833,0.5832,0.5831,0.584,0.5823,0.5823,0.5823,0.5836,0.5837,0.5837,0,0,0,0,0,0,0.5892,0.5891,0.5877,0.5882,0.588,0.5865,0.5863,0.5861,0.5858,0.5845,0.5842,0.5849,0.5832,0.5831,0.5832,0.5839,0.5823,0.5823,0.5835,0.5836,0.5837,0.5858,0,0,0,0,0,0,0.5893,0.5891,0.5895,0.5882,0.5879,0.5879,0.5864,0.5861,0.5858,0.5856,0.5845,0.5842,0.5832,0.5833,0.5832,0.5838,0.5822,0.5835,0.5836,0.5837,0.5856,0.5859,0.5861,0,0,0,0,0,0.5894,0.5901,0.5895,0.5893,0.5883,0.588,0.5878,0.5866,0.5859,0.5862,0.5853,0.5843,0.5838,0.5833,0.5832,0.5838,0.5834,0.5835,0.5836,0.5855,0.5859,0.5861,0,0,0,0,0,0,0.5915,0.5899,0.5892,0.5896,0.5889,0.5876,0.5879,0.587,0.5866,0.5864,0.5849,0.5847,0.585,0.5844,0.5839,0.5845,0.5835,0.5836,0.5849,0.5852,0.5855,0.5856,0.5822,0,0,0,0,0,0.5921,0.5919,0.5905,0.591,0.5907,0.5894,0.5892,0.5883,0.5876,0.5873,0.5864,0.5858,0.5855,0.5853,0.585,0.5855,0.5852,0.5859,0.5862,0.5864,0.5865,0.5867,0.587,0.5841,0.5841,0.5841,0,0,0.5931,0.5922,0.5922,0.5914,0.5908,0.5907,0.5892,0.5891,0.589,0.5873,0.5873,0.5867,0.5859,0.5862,0.5863,0.5857,0.5872,0.5865,0.5867,0.5867,0.5868,0.5871,0.5874,0.5842,0.5841,0.5841,0,0,0.595,0.5944,0.5946,0.5941,0.5931,0.5922,0.5923,0.5911,0.5906,0.5906,0.5893,0.5892,0.5887,0.5882,0.5878,0.5895,0.5885,0.5894,0.5907,0.591,0.5912,0.5914,0.592,0.5922,0.5895,0.5895,0.5895,0,0.5965,0.5963,0.5949,0.5949,0.5946,0.593,0.5933,0.5928,0.5918,0.5916,0.591,0.5903,0.5897,0.5898,0.5902,0.59,0.5901,0.5896,0.5913,0.5915,0.5916,0.5922,0.5924,0.5897,0.5896,0.5896,0.5896,0,0.5981,0.5979,0.5983,0.5974,0.5971,0.5972,0.5959,0.5958,0.5949,0.5941,0.5941,0.5933,0.5927,0.5927,0.5919,0.5927,0.5924,0.5915,0.5904,0.592,0.5925,0.5927,0.5898,0.5898,0.5897,0.5897,0,0,0.6013,0.5996,0.5998,0.5993,0.5982,0.598,0.5981,0.5975,0.5974,0.5968,0.5968,0.5965,0.5957,0.5953,0.5944,0.5946,0.5959,0.5937,0.5936,0.5941,0.5968,0.5975,0.5977,0.5953,0.5953,0.5953,0.5969,0,0.603,0.603,0.6018,0.6022,0.602,0.6005,0.6006,0.5999,0.5991,0.5989,0.598,0.5978,0.5967,0.5965,0.5966,0.5957,0.5964,0.5956,0.5953,0.5953,0.5955,0.598,0.5987,0.6002,0.5971,0.5971,0.5971,0,0.6049,0.6044,0.6047,0.6035,0.6034,0.6035,0.6029,0.6027,0.6019,0.6013,0.6008,0.5998,0.5998,0.5987,0.5987,0.5982,0.598,0.5975,0.5975,0.5975,0.5963,0.5979,0.6006,0.6008,0.5974,0.5974,0.5973,0,0.6072,0.6066,0.6067,0.6064,0.605,0.6051,0.6045,0.6036,0.6034,0.6028,0.6026,0.6021,0.6018,0.6014,0.6003,0.5996,0.6004,0.5992,0.5999,0.5999,0.6001,0.6001,0.6028,0.6,0.6,0.6,0.6,0,0.6092,0.6095,0.6077,0.6078,0.608,0.6066,0.6069,0.6062,0.6055,0.6054,0.604,0.604,0.6024,0.6022,0.6013,0.6014,0.6013,0.6008,0.6006,0.601,0.601,0.6008,0.6007,0.6,0.6,0.6,0.6,0,0.6118,0.6106,0.6106,0.6093,0.609,0.6092,0.6081,0.6081,0.6073,0.6072,0.6071,0.6058,0.6054,0.6042,0.6036,0.603,0.6034,0.6029,0.6037,0.6035,0.6042,0.6042,0.6068,0.6071,0.6042,0.6042,0.6042,0,0.6131,0.6133,0.612,0.6118,0.6113,0.6111,0.6108,0.6094,0.6092,0.6082,0.6084,0.6079,0.6075,0.607,0.606,0.6055,0.605,0.606,0.6049,0.6053,0.605,0.605,0.605,0.6062,0.6063,0.6063,0.6063,0,0.6156,0.615,0.6146,0.614,0.6137,0.6132,0.6126,0.6126,0.6111,0.6108,0.6105,0.6101,0.6095,0.6091,0.6084,0.6078,0.6068,0.6066,0.6068,0.6071,0.6076,0.6073,0.6043,0.6066,0.6066,0.6065,0.6065,0.6065,0.6176,0.6176,0.6167,0.6164,0.6158,0.6152,0.6152,0.6143,0.614,0.6133,0.6126,0.6123,0.6114,0.6105,0.61,0.6097,0.6092,0.6094,0.6094,0.6095,0.6096,0.6076,0.6096,0.6096,0.6096,0.6096,0.6096,0,0.6199,0.6193,0.619,0.6182,0.6179,0.6169,0.6162,0.6161,0.6158,0.6151,0.6147,0.6143,0.6139,0.6128,0.6123,0.6123,0.6118,0.6122,0.6122,0.6121,0.6102,0.6101,0.6126,0.6126,0.6126,0.6126,0.6126,0.6126,0.6211,0.6212,0.6205,0.6203,0.6196,0.6193,0.619,0.6185,0.6179,0.6175,0.6172,0.6165,0.6156,0.615,0.6146,0.6143,0.6142,0.6147,0.6142,0.6125,0.6122,0.6119,0.6119,0.6147,0.6147,0.6162,0.6162,0.6162]},{"header":{"parameterUnit":"m.s-1","parameterCategory":1,"la1":30.2991,"la2":30.254,"lo1":-89.0895,"lo2":-89.0444,"dy":0.0017,"dx":0.0017,"nx":28,"ny":28,"refTime":"2024-11-26T09:00:00:Z","depth":0,"parameterNumber":3,"parameterNumberName":"V-component_of_WINDS"},"data":[0,0,0,0,0,0,0,0,0,0,0,0,0,0,0,0,0,0,0,0,0,0,0,0,0,0,0,0,0,0,0,0,0,0,0,0,0,0,0,0,0,0,0,0,0,0,0,0,0,0,0,0,0,0,0,0,0,0,3.3138,3.3138,0,3.3171,3.3171,3.3171,3.3144,3.3143,3.3142,3.3141,3.3172,3.3174,3.3175,0,0,0,0,0,0,0,0,0,0,0,0,0,3.305,3.3051,3.3138,3.3139,3.3139,3.3171,3.3171,3.3171,3.3145,3.3143,3.3142,3.3141,3.3171,3.3173,3.3176,0,0,0,0,0,0,0,0,0,0,0,0,0,3.3086,3.3052,3.3138,3.3129,3.3129,3.317,3.3171,3.3171,3.3145,3.3143,3.3142,3.314,3.317,3.3173,3.3176,3.3227,0,0,3.3184,3.3186,0,0,0,0,0,0,0,0,3.3084,3.3089,3.313,3.313,3.313,3.3152,3.3151,3.319,3.3145,3.3139,3.3141,3.3139,3.3166,3.3169,3.3179,3.3228,3.3229,3.3185,3.3186,3.3188,3.3188,0,0,0,0,0,0,0,3.3081,3.3087,3.3151,3.3131,3.3131,3.3123,3.3126,3.3158,3.3161,3.3139,3.3137,3.3142,3.3166,3.3176,3.318,3.323,3.3185,3.3187,3.3189,3.319,3.3322,3.3323,0,0,0,0,0,0,3.308,3.3085,3.315,3.3152,3.3102,3.3126,3.3129,3.3146,3.3161,3.3162,3.3143,3.314,3.3172,3.3176,3.3181,3.3241,3.3188,3.319,3.3192,3.332,3.3322,3.3324,0,0,0,0,0,0,3.3078,3.3086,3.3148,3.3118,3.3126,3.3129,3.3148,3.3148,3.3158,3.3164,3.3164,3.3154,3.3171,3.3177,3.3215,3.3242,3.3191,3.3194,3.3318,3.3321,3.3323,3.3362,0,0,0,0,0,0,3.3076,3.3086,3.3106,3.3119,3.3127,3.3184,3.315,3.315,3.3164,3.316,3.3174,3.3175,3.317,3.3211,3.3218,3.3245,3.3196,3.3315,3.3319,3.3322,3.3359,3.3366,3.3372,0,0,0,0,0,3.3073,3.3115,3.3107,3.3115,3.3153,3.3186,3.319,3.3185,3.3166,3.3186,3.3189,3.3174,3.3238,3.3216,3.3223,3.3251,3.3314,3.3318,3.3322,3.3356,3.3365,3.3372,0,0,0,0,0,0,3.3104,3.3117,3.3108,3.3156,3.317,3.3181,3.3206,3.3195,3.3215,3.3211,3.3203,3.3206,3.3247,3.3252,3.3228,3.33,3.3272,3.3278,3.3295,3.3304,3.3311,3.3309,3.3198,0,0,0,0,0,3.3117,3.3143,3.3152,3.3194,3.3201,3.3203,3.3217,3.3212,3.3226,3.3231,3.3237,3.3251,3.3274,3.3289,3.331,3.3359,3.3361,3.3381,3.3388,3.3394,3.3399,3.3425,3.3434,3.3338,3.3337,3.3337,0,0,3.3143,3.3153,3.317,3.32,3.3211,3.3238,3.3208,3.3237,3.3257,3.3235,3.3273,3.3278,3.3292,3.3336,3.3356,3.3342,3.3426,3.3399,3.3403,3.3406,3.343,3.3439,3.3447,3.334,3.334,3.3339,0,0,3.3204,3.3215,3.3251,3.3262,3.3278,3.3278,3.3287,3.3299,3.3302,3.334,3.3324,3.3346,3.3386,3.3397,3.3408,3.3472,3.3459,3.3479,3.3515,3.354,3.3548,3.3554,3.3578,3.3586,3.3484,3.3484,3.3484,0,3.3235,3.3276,3.327,3.3301,3.3314,3.3297,3.3332,3.3343,3.3365,3.3374,3.3358,3.3407,3.3416,3.3462,3.3478,3.3487,3.3496,3.3478,3.3547,3.3554,3.356,3.3582,3.3591,3.3487,3.3487,3.3486,3.3486,0,3.3312,3.334,3.3367,3.339,3.3406,3.3439,3.3437,3.3454,3.3447,3.3449,3.3487,3.3496,3.3519,3.3529,3.3523,3.3574,3.3565,3.3549,3.3521,3.3572,3.3592,3.3601,3.349,3.3489,3.3489,3.3488,0,0,3.3395,3.3414,3.3424,3.3434,3.345,3.3471,3.3503,3.3526,3.354,3.3556,3.3582,3.3615,3.36,3.3612,3.3606,3.3628,3.3679,3.3609,3.3609,3.3622,3.3736,3.3749,3.3759,3.367,3.3671,3.3673,3.3735,0,3.3457,3.3514,3.3509,3.3562,3.3588,3.3571,3.3598,3.361,3.3613,3.3634,3.3635,3.366,3.3637,3.3645,3.3666,3.3668,3.3702,3.3664,3.3693,3.3695,3.3691,3.3769,3.3783,3.3841,3.3743,3.3744,3.3745,0,3.3538,3.3557,3.3613,3.3625,3.3636,3.3661,3.3681,3.3702,3.3715,3.3715,3.3728,3.3718,3.3749,3.372,3.3762,3.3736,3.3748,3.3751,3.3753,3.3756,3.3723,3.3775,3.386,3.3869,3.3758,3.3757,3.3756,0,3.3594,3.3633,3.3671,3.368,3.3695,3.3713,3.372,3.3731,3.3745,3.3763,3.3771,3.3792,3.3803,3.3819,3.3814,3.3793,3.3857,3.3827,3.3857,3.3857,3.3872,3.3871,3.3961,3.3879,3.3879,3.3879,3.3878,0,3.3664,3.3699,3.3696,3.372,3.3758,3.3752,3.3789,3.3794,3.3804,3.3827,3.3813,3.3835,3.3828,3.3849,3.3846,3.3881,3.3886,3.3886,3.3885,3.3888,3.3888,3.3896,3.3892,3.3881,3.388,3.388,3.3879,0,3.3733,3.3733,3.3773,3.3784,3.3787,3.3815,3.3824,3.3845,3.3846,3.3876,3.3882,3.3883,3.3907,3.3904,3.3931,3.3929,3.3973,3.3966,3.3969,3.3967,3.3998,3.3995,3.4096,3.4108,3.4018,3.4019,3.4019,0,3.3778,3.3805,3.3818,3.3833,3.3842,3.3866,3.388,3.3874,3.389,3.3906,3.3926,3.3949,3.3967,3.4007,3.4009,3.403,3.4024,3.4058,3.4027,3.4029,3.4025,3.4023,3.4026,3.4064,3.4065,3.4066,3.4066,0,3.3859,3.3857,3.3879,3.3901,3.3918,3.3935,3.3949,3.3962,3.3958,3.3975,3.4,3.4015,3.4042,3.4065,3.4084,3.409,3.4078,3.4076,3.4084,3.4088,3.4088,3.4088,3.3986,3.4074,3.4073,3.4073,3.4072,3.4072,3.3918,3.394,3.3953,3.3978,3.3988,3.4002,3.4023,3.4027,3.4048,3.4071,3.4065,3.4093,3.4105,3.4129,3.4137,3.4158,3.4146,3.4157,3.416,3.4164,3.4167,3.4084,3.4162,3.4161,3.4161,3.4161,3.4161,0,3.3998,3.4005,3.4028,3.4049,3.4068,3.4055,3.407,3.4087,3.4112,3.4124,3.4143,3.4171,3.4193,3.4197,3.4218,3.4234,3.4229,3.424,3.4239,3.424,3.4177,3.4168,3.4244,3.4244,3.4244,3.4244,3.4244,3.4244,3.4042,3.4079,3.4079,3.4121,3.4128,3.4157,3.4167,3.4179,3.4189,3.4221,3.424,3.4242,3.4251,3.4272,3.4291,3.4292,3.43,3.4314,3.4312,3.4253,3.4245,3.4237,3.4228,3.4315,3.4315,3.4373,3.4374,3.4374]}]]